Weather History for K04V - March, 2014

Change the Weather History Date:

Thursday, March 20, 2014

  Actual Average (KALS) Record (KALS)
Temperature  
Mean Temperature 36 °F 35 °F  
Max Temperature 55 °F 52 °F 72 °F (2004)
Min Temperature 17 °F 18 °F -5 °F (1964)
Degree Days  
Heating Degree Days 29 30  
Month to date heating degree days 661  
Since 1 July heating degree days 6990  
Cooling Degree Days 0 0  
Month to date cooling degree days 0  
Year to date cooling degree days 0  
Moisture  
Dew Point 4 °F    
Average Humidity 32    
Maximum Humidity 58    
Minimum Humidity 9    
Precipitation  
Precipitation 0.00 in 0.02 in 0.29 in (1970)
Month to date precipitation 0.32  
Year to date precipitation 0.84  
Snow  
Snow 0.00 in 0.10 in 4.80 in (1970)
Month to date snowfall 3.1  
Since 1 July snowfall 21.2  
Snow Depth -    
Sea Level Pressure  
Sea Level Pressure 30.11 in    
Wind  
Wind Speed 9 mph (NNW)    
Max Wind Speed 21 mph    
Max Gust Speed 26 mph    
Visibility 10 miles    
Events      
T = Trace of Precipitation, MM = Missing Value Source: NWS Daily Summary

Daily Weather History Graph

Daily Weather History Graph

Search for Another Location

Airport or City:

Trip Planner

Search our weather history database for the weather conditions in past years. The results will help you decide how hot, cold, wet, or windy it might be!

Date:

Astronomy

Mar. 20, 2014 Rise Set
Actual Time 7:08 AM MDT 7:16 PM MDT
Civil Twilight 6:41 AM MDT 7:42 PM MDT
Nautical Twilight 6:11 AM MDT 8:13 PM MDT
Astronomical Twilight 5:39 AM MDT 8:45 PM MDT
Moon 11:35 PM MDT (3/20) 9:19 AM MDT (3/20)
Length of Visible Light 13h 01m
Length of Day
12h 08m
Waning Gibbous, 83% of the Moon is Illuminated
Mar 20
Waning Gibbous
Mar 23
Last Quarter
Mar 30
New
Apr 7
First Quarter
Apr 15
Full

Hourly Weather History & Observations

Time (MDT) Temp. Windchill Dew Point Humidity Pressure Visibility Wind Dir Wind Speed Gust Speed Precip Events Conditions
12:12 AM 26.6 °F 18.2 °F 6.8 °F 43% 30.21 in 10.0 mi WNW 8.1 mph - N/A   Clear
12:32 AM 26.6 °F 16.8 °F 6.8 °F 43% 30.21 in 10.0 mi NW 10.4 mph - N/A   Clear
12:52 AM 26.6 °F 16.8 °F 8.6 °F 47% 30.21 in 10.0 mi NW 10.4 mph - N/A   Clear
1:12 AM 23.0 °F 14.7 °F 6.8 °F 50% 30.21 in 10.0 mi NNW 6.9 mph - N/A   Clear
1:31 AM 21.2 °F 14.9 °F 5.0 °F 50% 30.21 in 10.0 mi NW 4.6 mph - N/A   Clear
1:52 AM 21.2 °F 14.9 °F 5.0 °F 50% 30.21 in 10.0 mi NNW 4.6 mph - N/A   Clear
2:12 AM 21.2 °F 11.7 °F 6.8 °F 54% 30.21 in 10.0 mi NNW 8.1 mph - N/A   Clear
2:32 AM 23.0 °F 13.1 °F 8.6 °F 54% 30.21 in 10.0 mi NNW 9.2 mph - N/A   Clear
2:51 AM 23.0 °F 12.4 °F 8.6 °F 54% 30.21 in 10.0 mi NNW 10.4 mph - N/A   Clear
3:12 AM 23.0 °F 12.4 °F 8.6 °F 54% 30.21 in 10.0 mi NNW 10.4 mph - N/A   Clear
3:32 AM 23.0 °F 11.7 °F 8.6 °F 54% 30.20 in 10.0 mi NNW 11.5 mph - N/A   Clear
3:52 AM 23.0 °F 11.1 °F 8.6 °F 54% 30.19 in 10.0 mi NNW 12.7 mph - N/A   Clear
4:12 AM 21.2 °F 9.5 °F 8.6 °F 58% 30.19 in 10.0 mi NNW 11.5 mph - N/A   Clear
4:32 AM 21.2 °F 8.9 °F 8.6 °F 58% 30.19 in 10.0 mi NNW 12.7 mph - N/A   Clear
4:52 AM 21.2 °F 8.9 °F 6.8 °F 54% 30.19 in 10.0 mi NNW 12.7 mph - N/A   Clear
5:12 AM 19.4 °F 7.2 °F 6.8 °F 58% 30.18 in 10.0 mi NNW 11.5 mph - N/A   Clear
5:31 AM 19.4 °F 11.5 °F 6.8 °F 58% 30.19 in 10.0 mi WNW 5.8 mph - N/A   Clear
5:52 AM 19.4 °F 7.2 °F 6.8 °F 58% 30.18 in 10.0 mi NW 11.5 mph - N/A   Clear
6:12 AM 17.6 °F 3.7 °F 5.0 °F 58% 30.18 in 10.0 mi NNW 13.8 mph - N/A   Clear
6:32 AM 17.6 °F 6.4 °F 5.0 °F 58% 30.18 in 10.0 mi NNW 9.2 mph - N/A   Clear
6:52 AM 17.6 °F 6.4 °F 5.0 °F 58% 30.18 in 10.0 mi NNW 9.2 mph - N/A   Clear
7:12 AM 17.6 °F 8.2 °F 5.0 °F 58% 30.19 in 10.0 mi NNW 6.9 mph - N/A   Clear
7:32 AM 17.6 °F 10.7 °F 5.0 °F 58% 30.19 in 10.0 mi West 4.6 mph - N/A   Clear
7:52 AM 21.2 °F 13.6 °F 5.0 °F 50% 30.19 in 10.0 mi WNW 5.8 mph - N/A   Clear
8:12 AM 23.0 °F 13.9 °F 6.8 °F 50% 30.19 in 10.0 mi WNW 8.1 mph - N/A   Clear
8:32 AM 26.6 °F 22.6 °F 6.8 °F 43% 30.19 in 10.0 mi WNW 3.5 mph - N/A   Clear
8:52 AM 30.2 °F 24.3 °F 5.0 °F 34% 30.19 in 10.0 mi WNW 5.8 mph - N/A   Clear
9:12 AM 32.0 °F 28.7 °F 3.2 °F 30% 30.19 in 10.0 mi WNW 3.5 mph - N/A   Clear
9:32 AM 35.6 °F 32.8 °F 3.2 °F 26% 30.19 in 10.0 mi SE 3.5 mph - N/A   Clear
9:52 AM 35.6 °F 29.9 °F 5.0 °F 28% 30.19 in 10.0 mi SE 6.9 mph - N/A   Clear
10:12 AM 37.4 °F 32.8 °F 6.8 °F 28% 30.17 in 10.0 mi SE 5.8 mph - N/A   Clear
10:32 AM 37.4 °F 32.8 °F 6.8 °F 28% 30.18 in 10.0 mi SSE 5.8 mph - N/A   Clear
10:52 AM 39.2 °F 34.2 °F 6.8 °F 26% 30.17 in 10.0 mi South 6.9 mph - N/A   Clear
11:12 AM 41.0 °F 35.8 °F 5.0 °F 23% 30.16 in 10.0 mi South 8.1 mph - N/A   Clear
11:32 AM 42.8 °F 37.0 °F 3.2 °F 19% 30.15 in 10.0 mi SSE 10.4 mph - N/A   Clear
11:52 AM 44.6 °F 38.8 °F 3.2 °F 18% 30.14 in 10.0 mi SSE 11.5 mph 17.3 mph N/A   Clear
12:12 PM 44.6 °F 40.2 °F 5.0 °F 20% 30.13 in 10.0 mi South 8.1 mph - N/A   Clear
12:32 PM 46.4 °F 41.1 °F 5.0 °F 18% 30.12 in 10.0 mi South 11.5 mph 18.4 mph N/A   Clear
12:52 PM 48.2 °F - 3.2 °F 16% 30.11 in 10.0 mi South 11.5 mph 17.3 mph N/A   Clear
1:12 PM 48.2 °F - 3.2 °F 16% 30.09 in 10.0 mi SSE 9.2 mph - N/A   Clear
1:32 PM 50.0 °F - 5.0 °F 16% 30.08 in 10.0 mi South 9.2 mph 18.4 mph N/A   Clear
1:52 PM 50.0 °F - 3.2 °F 15% 30.06 in 10.0 mi South 6.9 mph - N/A   Clear
2:12 PM 50.0 °F - 3.2 °F 15% 30.05 in 10.0 mi South 8.1 mph - N/A   Clear
2:32 PM 50.0 °F - 3.2 °F 15% 30.04 in 10.0 mi South 4.6 mph - N/A   Clear
2:52 PM 51.8 °F - 3.2 °F 14% 30.02 in 10.0 mi South 4.6 mph - N/A   Clear
3:12 PM 51.8 °F - 3.2 °F 14% 30.01 in 10.0 mi South 9.2 mph - N/A   Clear
3:32 PM 51.8 °F - 1.4 °F 13% 30.00 in 10.0 mi SE 6.9 mph - N/A   Clear
3:51 PM 53.6 °F - 3.2 °F 13% 30.00 in 10.0 mi SE 8.1 mph - N/A   Clear
4:11 PM 53.6 °F - 3.2 °F 13% 30.00 in 10.0 mi NNE 4.6 mph - N/A   Clear
4:32 PM 55.4 °F - -2.2 °F 9% 29.98 in 10.0 mi North 12.7 mph 21.9 mph N/A   Clear
4:52 PM 55.4 °F - -0.4 °F 10% 29.99 in 10.0 mi North 16.1 mph 21.9 mph N/A   Clear
5:12 PM 55.4 °F - -0.4 °F 10% 29.98 in 10.0 mi North 19.6 mph 24.2 mph N/A   Clear
5:32 PM 53.6 °F - -2.2 °F 10% 29.98 in 10.0 mi NNW 20.7 mph 24.2 mph N/A   Clear
5:52 PM 51.8 °F - -2.2 °F 11% 29.98 in 10.0 mi NNW 19.6 mph 26.5 mph N/A   Clear
6:12 PM 51.8 °F - -2.2 °F 11% 30.00 in 10.0 mi North 19.6 mph 23.0 mph N/A   Clear
6:32 PM 48.2 °F - -2.2 °F 12% 30.00 in 10.0 mi North 16.1 mph - N/A   Clear
6:52 PM 46.4 °F 39.8 °F -2.2 °F 13% 30.00 in 10.0 mi North 16.1 mph 20.7 mph N/A   Clear
7:12 PM 44.6 °F 39.2 °F -0.4 °F 15% 30.01 in 10.0 mi North 10.4 mph - N/A   Clear
7:32 PM 42.8 °F 37.5 °F -2.2 °F 15% 30.01 in 10.0 mi NNW 9.2 mph - N/A   Clear
7:51 PM 41.0 °F 34.3 °F -0.4 °F 18% 30.01 in 10.0 mi NNW 11.5 mph - N/A   Clear
8:11 PM 39.2 °F 32.5 °F -0.4 °F 19% 30.01 in 10.0 mi NW 10.4 mph - N/A   Clear
8:32 PM 35.6 °F 29.2 °F -0.4 °F 22% 30.02 in 10.0 mi NW 8.1 mph - N/A   Clear
8:52 PM 35.6 °F 29.9 °F -0.4 °F 22% 30.02 in 10.0 mi NW 6.9 mph - N/A   Clear
9:12 PM 35.6 °F 31.7 °F 1.4 °F 24% 30.03 in 10.0 mi NW 4.6 mph - N/A   Clear
9:32 PM 33.8 °F 29.6 °F -0.4 °F 23% 30.03 in 10.0 mi North 4.6 mph - N/A   Clear
9:52 PM 30.2 °F 24.3 °F -0.4 °F 27% 30.03 in 10.0 mi NNE 5.8 mph - N/A   Clear
10:12 PM 30.2 °F 26.7 °F -0.4 °F 27% 30.04 in 10.0 mi NNE 3.5 mph - N/A   Clear
10:32 PM 33.8 °F 29.6 °F -0.4 °F 23% 30.04 in 10.0 mi North 4.6 mph - N/A   Clear
10:52 PM 32.0 °F 24.2 °F 1.4 °F 27% 30.05 in 10.0 mi North 9.2 mph - N/A   Clear
11:11 PM 32.0 °F 24.2 °F 1.4 °F 27% 30.05 in 10.0 mi North 9.2 mph - N/A   Clear
11:32 PM 32.0 °F 23.6 °F 1.4 °F 27% 30.05 in 10.0 mi North 10.4 mph - N/A   Clear
11:52 PM 32.0 °F 23.6 °F 3.2 °F 30% 30.05 in 10.0 mi North 10.4 mph - N/A   Clear